Accueil
METAR-TAF:

METAR-TAF

Aéroports :

Waterville Robert LaFleur Airport

Waterville, Maine, États-Unis

latitude: 44-32N, longitude: 069-41W, altitude: 101 m

Observation

Le bulletin a été fait il y a 20 minutes, à 04:56 UTC
Vent 8 kt de nord/nord-est
Température 9°C
Humidité 66%
Pression 1013 hPa
Visibilité: 16.1 km
Nuages fragmentés à une hauteur de 4300 ft
Ciel couvert à une hauteur de 5500 ft

METAR: KWVL 220456Z AUTO 02008KT 10SM BKN043 OVC055 09/03 A2990 RMK AO2 RAB09E23 SLP153 P0000 T00940033 401610094

Heure: 01:16 (05:16 UTC)


TAF: absent

Observations et prévisions météorologiques de plus de 4000 aéroports (messages METAR et TAF).

Les stations disponibles sont représentées par des disques jaunes et rouges sur la carte.

Passer la souris dessus pour voir le nom de la station.

Cliquer dessus pour voir les observations et prévisions météorologiques.

Pour changer de carte: cliquez sur les boutons verts avec une croix noire pour zoomer, sur le bouton vert avec un tiret pour effectuer un zoom arrière, ou sur les flèches vertes pour les cartes adjacentes.


METAR-TAF: